ATLAS 5 CENTAUR DEB, 46647

Orbit data source: Space-Track

ATLAS 5 CENTAUR DEB, 46647 is space debris in HEO originally from a launch on Wed, 17 Sep 2014 UTC launched from the Air Force Eastern Test Range (AFETR). Debris objects in space refer to the collection of defunct objects orbiting the Earth. Examples of debris include non-operational satellites, rocket bodies, and fragments generated from explosions, collisions, or faulty payload assembly.

Loading next visibility...
Identifier
46647, 2014-055CX
Orbit
HEO
Country
Flag of USUS
Related business
Flag of USUnited Launch Alliance/Lockheed Martin (US)
Manufacturer
Unknown
Mission
Spacecraft
Bus & Motor
Unknown
Mass
Unknown
Launch date (UTC)
2014-09-17 (12 years ago)
Launch vehicle
Unknown
Launch site
Air Force Eastern Test Range (AFETR)
Object type
Payload
Rocket body
Debris
Shape & HBR
Unknown shape, 1.1 m
Radar Cross Section
RCS unknown

Expand to show TLE details & history
Last TLE update: 2 days ago

TLE from 2 days ago
0 ATLAS 5 CENTAUR DEB
1 46647U 14055CX  26171.15355421 -.00000045  00000-0  00000+0 0  9994
2 46647  19.9676 147.0723 4790526 157.4909 233.6904  1.84053704 38234
Epoch: 2026-06-20T03:41Z
TLE epoch observation values (Epoch: 2026-06-20T03:41:07.083Z)
Latitude
-0.00001°
Longitude
-176.60149°
Altitude
32,482.843 km
Speed
2.518 km/s
True Right ascension
09h 48m 12s
True Declination
0° 00' 00"
Sunlit
Object was in daylight at epoch
Visualization orbit readout
Latitude
Unknown
Longitude
Unknown
Altitude
Unknown
Speed
Unknown
Apparent Right ascension
Unknown
Apparent Declination
Unknown
Sunlit
N/A
Visualization observer readout
Local Sidereal Time
21:38:26
Azimuth
Unknown
Elevation
Unknown
Doppler factor
Unknown
Orbital elements
Apogee altitude
35,224.307 km
Perigee altitude
8,274.949 km
Semi-major axis
28,127.765 km
Eccentricity
0.47905
Inclination
19.9676°
RAAN
147.0723°
Arg. of periapsis
157.4909°
True anomaly
202.54183°
Mean anomaly
233.6904°
Eccentric anomaly
217.12441°
Mean motion
0.46009 °/min
Orbital period
782.46 mins
BSTAR
0
Loading maneuver chart data...
Computing Atmospheric mass density...

Documentation

Showing up to 5 results
|